Time,TemperatureF,DewpointF,PressureIn,WindDirection,WindDirectionDegrees,WindSpeedMPH,WindSpeedGustMPH,Humidity,HourlyPrecipIn,Conditions,Clouds,dailyrainin,SoftwareType,DateUTC
2013-04-18 00:02:00,46.9,46.9,30.28,NW,308,0.0,0.0,100,0.00,n/a,n/a,-99.99,Henriksen +1-Wire,2013-04-18 04:02:00,
2013-04-18 00:04:00,46.7,46.7,30.28,NW,311,0.0,0.0,100,0.00,n/a,n/a,-99.99,Henriksen +1-Wire,2013-04-18 04:04:00,
2013-04-18 00:06:00,46.3,46.3,30.29,NW,312,0.0,0.0,100,0.00,n/a,n/a,-99.99,Henriksen +1-Wire,2013-04-18 04:06:00,
2013-04-18 00:10:00,45.9,45.9,30.29,NW,313,0.0,0.0,100,0.00,n/a,n/a,-99.99,Henriksen +1-Wire,2013-04-18 04:10:00,
2013-04-18 00:16:00,45.6,45.6,30.29,NNE,26,0.0,0.0,100,0.00,n/a,n/a,-99.99,Henriksen +1-Wire,2013-04-18 04:16:00,
2013-04-18 00:18:00,45.6,45.6,30.29,NE,37,0.0,0.0,100,0.00,n/a,n/a,-99.99,Henriksen +1-Wire,2013-04-18 04:18:00,
2013-04-18 00:24:00,44.4,44.4,30.29,North,357,0.0,0.0,100,0.00,n/a,n/a,-99.99,Henriksen +1-Wire,2013-04-18 04:24:00,
2013-04-18 00:30:00,44.2,44.2,30.30,North,354,0.0,0.0,100,0.00,n/a,n/a,-99.99,Henriksen +1-Wire,2013-04-18 04:30:00,
2013-04-18 00:36:00,43.6,43.6,30.30,North,1,0.0,0.0,100,0.00,n/a,n/a,-99.99,Henriksen +1-Wire,2013-04-18 04:36:00,
2013-04-18 00:42:00,43.8,43.8,30.30,NNW,330,0.0,0.0,100,0.00,n/a,n/a,-99.99,Henriksen +1-Wire,2013-04-18 04:42:00,
2013-04-18 00:48:00,43.8,43.8,30.31,NW,315,0.0,0.0,100,0.00,n/a,n/a,-99.99,Henriksen +1-Wire,2013-04-18 04:48:00,
2013-04-18 00:54:00,43.5,43.5,30.31,SW,221,0.0,0.0,100,0.00,n/a,n/a,-99.99,Henriksen +1-Wire,2013-04-18 04:54:00,
2013-04-18 01:00:00,43.3,43.3,30.31,ENE,61,0.7,1.3,100,0.00,n/a,n/a,-99.99,Henriksen +1-Wire,2013-04-18 05:00:00,
2013-04-18 01:06:00,42.9,42.9,30.31,East,82,0.0,1.6,100,0.00,n/a,n/a,-99.99,Henriksen +1-Wire,2013-04-18 05:06:00,
2013-04-18 01:12:00,42.4,42.4,30.31,NE,45,0.0,1.0,100,0.00,n/a,n/a,-99.99,Henriksen +1-Wire,2013-04-18 05:12:00,
2013-04-18 01:18:00,41.7,41.7,30.31,NE,45,0.0,0.3,100,0.00,n/a,n/a,-99.99,Henriksen +1-Wire,2013-04-18 05:18:00,
2013-04-18 01:24:00,41.4,41.4,30.31,NE,45,0.0,0.0,100,0.00,n/a,n/a,-99.99,Henriksen +1-Wire,2013-04-18 05:24:00,
2013-04-18 01:30:00,41.2,41.2,30.32,NNE,14,1.4,1.9,100,0.00,n/a,n/a,-99.99,Henriksen +1-Wire,2013-04-18 05:30:00,
2013-04-18 01:36:00,40.9,40.9,30.31,NW,321,1.2,2.2,100,0.00,n/a,n/a,-99.99,Henriksen +1-Wire,2013-04-18 05:36:00,
2013-04-18 01:42:00,40.7,40.7,30.31,NW,325,0.9,1.9,100,0.00,n/a,n/a,-99.99,Henriksen +1-Wire,2013-04-18 05:42:00,
2013-04-18 01:48:00,40.6,40.6,30.31,NNW,336,0.0,1.9,100,0.00,n/a,n/a,-99.99,Henriksen +1-Wire,2013-04-18 05:48:00,
2013-04-18 01:54:00,40.5,40.5,30.31,NNE,25,0.0,0.3,100,0.00,n/a,n/a,-99.99,Henriksen +1-Wire,2013-04-18 05:54:00,
2013-04-18 02:00:00,40.1,40.1,30.31,NNE,19,0.0,0.0,100,0.00,n/a,n/a,-99.99,Henriksen +1-Wire,2013-04-18 06:00:00,
2013-04-18 02:06:00,39.7,39.7,30.30,North,350,0.0,0.0,100,0.00,n/a,n/a,-99.99,Henriksen +1-Wire,2013-04-18 06:06:00,
2013-04-18 02:12:00,39.6,39.6,30.30,NW,316,0.7,1.6,100,0.00,n/a,n/a,-99.99,Henriksen +1-Wire,2013-04-18 06:12:00,
2013-04-18 02:18:00,40.0,40.0,30.30,NW,322,1.0,2.7,100,0.00,n/a,n/a,-99.99,Henriksen +1-Wire,2013-04-18 06:18:00,
2013-04-18 02:24:00,40.9,40.9,30.30,NNW,331,1.1,2.7,100,0.00,n/a,n/a,-99.99,Henriksen +1-Wire,2013-04-18 06:24:00,
2013-04-18 02:30:00,42.5,42.5,30.30,NNW,330,1.3,3.5,100,0.00,n/a,n/a,-99.99,Henriksen +1-Wire,2013-04-18 06:30:00,
2013-04-18 02:36:00,43.5,43.5,30.30,NNW,331,1.0,3.5,100,0.00,n/a,n/a,-99.99,Henriksen +1-Wire,2013-04-18 06:36:00,
2013-04-18 02:42:00,43.1,43.1,30.29,NNE,25,1.1,2.5,100,0.00,n/a,n/a,-99.99,Henriksen +1-Wire,2013-04-18 06:42:00,
2013-04-18 02:48:00,43.1,43.1,30.30,NNW,345,1.4,2.9,100,0.00,n/a,n/a,-99.99,Henriksen +1-Wire,2013-04-18 06:48:00,
2013-04-18 02:54:00,43.4,43.4,30.30,NNW,329,1.1,4.4,100,0.00,n/a,n/a,-99.99,Henriksen +1-Wire,2013-04-18 06:54:00,
2013-04-18 03:00:00,44.1,44.1,30.30,NNW,331,1.5,3.9,100,0.00,n/a,n/a,-99.99,Henriksen +1-Wire,2013-04-18 07:00:00,
2013-04-18 03:06:00,44.0,44.0,30.30,NNW,338,0.8,3.2,100,0.00,n/a,n/a,-99.99,Henriksen +1-Wire,2013-04-18 07:06:00,
2013-04-18 03:12:00,43.7,43.7,30.31,NW,321,1.4,2.5,100,0.00,n/a,n/a,-99.99,Henriksen +1-Wire,2013-04-18 07:12:00,
2013-04-18 03:18:00,43.8,43.8,30.31,NNW,334,0.8,3.2,100,0.00,n/a,n/a,-99.99,Henriksen +1-Wire,2013-04-18 07:18:00,
2013-04-18 03:24:00,43.8,43.8,30.31,NNW,337,0.6,3.2,100,0.00,n/a,n/a,-99.99,Henriksen +1-Wire,2013-04-18 07:24:00,
2013-04-18 03:30:00,43.3,43.3,30.31,NNW,337,1.2,2.3,100,0.00,n/a,n/a,-99.99,Henriksen +1-Wire,2013-04-18 07:30:00,
2013-04-18 03:36:00,43.0,43.0,30.32,NNW,328,1.1,2.3,100,0.00,n/a,n/a,-99.99,Henriksen +1-Wire,2013-04-18 07:36:00,
2013-04-18 03:42:00,42.9,42.9,30.33,NW,318,1.0,1.6,100,0.00,n/a,n/a,-99.99,Henriksen +1-Wire,2013-04-18 07:42:00,
2013-04-18 03:48:00,42.7,42.7,30.33,NW,325,0.2,1.3,100,0.00,n/a,n/a,-99.99,Henriksen +1-Wire,2013-04-18 07:48:00,
2013-04-18 03:54:00,41.9,41.9,30.33,NW,325,1.1,1.7,100,0.00,n/a,n/a,-99.99,Henriksen +1-Wire,2013-04-18 07:54:00,
2013-04-18 04:00:00,41.3,41.3,30.33,NNW,329,1.0,1.9,100,0.00,n/a,n/a,-99.99,Henriksen +1-Wire,2013-04-18 08:00:00,
2013-04-18 04:06:00,41.2,41.2,30.33,NW,321,0.8,1.9,100,0.00,n/a,n/a,-99.99,Henriksen +1-Wire,2013-04-18 08:06:00,
2013-04-18 04:12:00,40.9,40.9,30.33,NW,304,1.0,1.6,100,0.00,n/a,n/a,-99.99,Henriksen +1-Wire,2013-04-18 08:12:00,
2013-04-18 04:18:00,41.0,41.0,30.34,NW,311,1.6,1.9,100,0.00,n/a,n/a,-99.99,Henriksen +1-Wire,2013-04-18 08:18:00,
2013-04-18 04:24:00,40.8,40.8,30.34,NNW,334,0.3,2.1,100,0.00,n/a,n/a,-99.99,Henriksen +1-Wire,2013-04-18 08:24:00,
2013-04-18 04:30:00,40.4,40.4,30.33,NNW,331,0.9,1.7,100,0.00,n/a,n/a,-99.99,Henriksen +1-Wire,2013-04-18 08:30:00,
2013-04-18 04:36:00,40.1,40.1,30.33,NW,313,1.1,1.6,100,0.00,n/a,n/a,-99.99,Henriksen +1-Wire,2013-04-18 08:36:00,
2013-04-18 04:42:00,40.6,40.6,30.34,NW,318,0.6,2.2,100,0.00,n/a,n/a,-99.99,Henriksen +1-Wire,2013-04-18 08:42:00,
2013-04-18 04:48:00,40.2,40.2,30.34,NW,316,1.6,2.2,100,0.00,n/a,n/a,-99.99,Henriksen +1-Wire,2013-04-18 08:48:00,
2013-04-18 04:54:00,40.8,40.8,30.34,NW,326,1.2,2.6,100,0.00,n/a,n/a,-99.99,Henriksen +1-Wire,2013-04-18 08:54:00,
2013-04-18 05:00:00,41.1,41.1,30.35,NW,321,1.6,2.3,100,0.00,n/a,n/a,-99.99,Henriksen +1-Wire,2013-04-18 09:00:00,
2013-04-18 05:06:00,40.9,40.9,30.35,NW,319,1.0,2.3,100,0.00,n/a,n/a,-99.99,Henriksen +1-Wire,2013-04-18 09:06:00,
2013-04-18 05:12:00,40.1,40.1,30.35,North,351,0.5,1.9,100,0.00,n/a,n/a,-99.99,Henriksen +1-Wire,2013-04-18 09:12:00,
2013-04-18 05:18:00,39.9,39.9,30.34,NNW,347,0.8,2.2,100,0.00,n/a,n/a,-99.99,Henriksen +1-Wire,2013-04-18 09:18:00,
2013-04-18 05:24:00,39.3,39.3,30.35,NNW,337,0.7,2.2,100,0.00,n/a,n/a,-99.99,Henriksen +1-Wire,2013-04-18 09:24:00,
2013-04-18 05:30:00,39.0,39.0,30.35,NW,325,1.1,1.6,100,0.00,n/a,n/a,-99.99,Henriksen +1-Wire,2013-04-18 09:30:00,
2013-04-18 05:36:00,39.1,39.1,30.35,NNW,328,0.6,1.6,100,0.00,n/a,n/a,-99.99,Henriksen +1-Wire,2013-04-18 09:36:00,
2013-04-18 05:42:00,39.1,39.1,30.35,NW,315,1.3,2.2,100,0.00,n/a,n/a,-99.99,Henriksen +1-Wire,2013-04-18 09:42:00,
2013-04-18 05:48:00,39.7,39.7,30.35,NNW,330,1.3,2.8,100,0.00,n/a,n/a,-99.99,Henriksen +1-Wire,2013-04-18 09:48:00,
2013-04-18 05:54:00,39.8,39.8,30.34,NW,326,0.9,2.5,100,0.00,n/a,n/a,-99.99,Henriksen +1-Wire,2013-04-18 09:54:00,
2013-04-18 06:00:00,39.7,39.7,30.35,NNW,328,0.2,2.5,100,0.00,n/a,n/a,-99.99,Henriksen +1-Wire,2013-04-18 10:00:00,
2013-04-18 06:06:00,39.5,39.5,30.34,NW,317,0.5,2.2,100,0.00,n/a,n/a,-99.99,Henriksen +1-Wire,2013-04-18 10:06:00,
2013-04-18 06:12:00,39.4,39.4,30.34,NNW,347,0.2,1.9,100,0.00,n/a,n/a,-99.99,Henriksen +1-Wire,2013-04-18 10:12:00,
2013-04-18 06:18:00,39.5,39.5,30.34,NNW,335,0.6,1.6,100,0.00,n/a,n/a,-99.99,Henriksen +1-Wire,2013-04-18 10:18:00,
2013-04-18 06:24:00,39.7,39.7,30.34,NNW,327,0.0,1.3,100,0.00,n/a,n/a,-99.99,Henriksen +1-Wire,2013-04-18 10:24:00,
2013-04-18 06:30:00,39.4,39.4,30.34,NNW,345,0.0,1.0,100,0.00,n/a,n/a,-99.99,Henriksen +1-Wire,2013-04-18 10:30:00,
2013-04-18 06:36:00,39.9,39.9,30.34,NNW,347,0.9,1.9,100,0.00,n/a,n/a,-99.99,Henriksen +1-Wire,2013-04-18 10:36:00,
2013-04-18 06:42:00,40.6,40.6,30.34,NW,318,0.9,2.6,100,0.00,n/a,n/a,-99.99,Henriksen +1-Wire,2013-04-18 10:42:00,
2013-04-18 06:48:00,41.3,41.3,30.35,NW,322,1.5,2.6,100,0.00,n/a,n/a,-99.99,Henriksen +1-Wire,2013-04-18 10:48:00,
2013-04-18 06:54:00,42.0,42.0,30.35,NW,325,0.8,2.6,100,0.00,n/a,n/a,-99.99,Henriksen +1-Wire,2013-04-18 10:54:00,
2013-04-18 07:00:00,42.1,42.1,30.35,NW,318,0.4,2.6,100,0.00,n/a,n/a,-99.99,Henriksen +1-Wire,2013-04-18 11:00:00,
2013-04-18 07:06:00,42.3,42.3,30.35,NW,323,1.2,2.6,100,0.00,n/a,n/a,-99.99,Henriksen +1-Wire,2013-04-18 11:06:00,
2013-04-18 07:12:00,43.0,43.0,30.36,SW,216,0.7,2.6,100,0.00,n/a,n/a,-99.99,Henriksen +1-Wire,2013-04-18 11:12:00,
2013-04-18 07:18:00,43.7,43.7,30.36,SSW,204,0.9,1.9,100,0.00,n/a,n/a,-99.99,Henriksen +1-Wire,2013-04-18 11:18:00,
2013-04-18 07:24:00,44.1,44.1,30.36,NE,44,1.9,3.5,100,0.00,n/a,n/a,-99.99,Henriksen +1-Wire,2013-04-18 11:24:00,
2013-04-18 07:30:00,44.4,44.4,30.36,ENE,60,1.1,3.8,100,0.00,n/a,n/a,-99.99,Henriksen +1-Wire,2013-04-18 11:30:00,
2013-04-18 07:36:00,45.0,45.0,30.36,East,95,1.2,5.0,100,0.00,n/a,n/a,-99.99,Henriksen +1-Wire,2013-04-18 11:36:00,
2013-04-18 07:42:00,45.4,45.4,30.37,WSW,245,2.4,6.2,100,0.00,n/a,n/a,-99.99,Henriksen +1-Wire,2013-04-18 11:42:00,
2013-04-18 07:48:00,45.8,45.8,30.37,WNW,288,1.9,6.2,100,0.00,n/a,n/a,-99.99,Henriksen +1-Wire,2013-04-18 11:48:00,
2013-04-18 07:54:00,46.2,46.2,30.37,ENE,70,1.7,5.6,100,0.00,n/a,n/a,-99.99,Henriksen +1-Wire,2013-04-18 11:54:00,
2013-04-18 08:00:00,46.7,46.7,30.37,ENE,65,2.5,5.8,100,0.00,n/a,n/a,-99.99,Henriksen +1-Wire,2013-04-18 12:00:00,
2013-04-18 08:06:00,46.8,46.8,30.37,ENE,72,3.0,5.8,100,0.00,n/a,n/a,-99.99,Henriksen +1-Wire,2013-04-18 12:06:00,
2013-04-18 08:12:00,47.1,47.1,30.37,ENE,70,3.4,9.7,100,0.00,n/a,n/a,-99.99,Henriksen +1-Wire,2013-04-18 12:12:00,
2013-04-18 08:18:00,47.4,47.4,30.37,NE,49,1.9,9.7,100,0.00,n/a,n/a,-99.99,Henriksen +1-Wire,2013-04-18 12:18:00,
2013-04-18 08:24:00,47.7,47.7,30.37,ENE,60,3.8,8.2,100,0.00,n/a,n/a,-99.99,Henriksen +1-Wire,2013-04-18 12:24:00,
2013-04-18 08:30:00,48.3,48.3,30.37,ENE,76,4.6,8.1,100,0.00,n/a,n/a,-99.99,Henriksen +1-Wire,2013-04-18 12:30:00,
2013-04-18 08:36:00,48.8,48.8,30.37,East,81,4.7,9.9,100,0.00,n/a,n/a,-99.99,Henriksen +1-Wire,2013-04-18 12:36:00,
2013-04-18 08:42:00,49.0,49.0,30.37,NNE,27,3.6,8.7,100,0.00,n/a,n/a,-99.99,Henriksen +1-Wire,2013-04-18 12:42:00,
2013-04-18 08:48:00,49.4,49.4,30.37,East,81,6.7,10.5,100,0.00,n/a,n/a,-99.99,Henriksen +1-Wire,2013-04-18 12:48:00,
2013-04-18 08:54:00,50.0,50.0,30.37,East,79,5.0,11.5,100,0.00,n/a,n/a,-99.99,Henriksen +1-Wire,2013-04-18 12:54:00,
2013-04-18 09:00:00,50.3,50.3,30.36,ENE,72,4.8,12.1,100,0.00,n/a,n/a,-99.99,Henriksen +1-Wire,2013-04-18 13:00:00,
2013-04-18 09:06:00,50.5,50.5,30.35,ENE,75,7.8,12.8,100,0.00,n/a,n/a,-99.99,Henriksen +1-Wire,2013-04-18 13:06:00,
2013-04-18 09:12:00,50.7,50.7,30.34,ENE,78,6.6,12.8,100,0.00,n/a,n/a,-99.99,Henriksen +1-Wire,2013-04-18 13:12:00,
2013-04-18 09:18:00,50.9,50.9,30.35,ENE,76,7.7,15.1,100,0.00,n/a,n/a,-99.99,Henriksen +1-Wire,2013-04-18 13:18:00,
2013-04-18 09:24:00,51.1,51.1,30.35,ENE,77,6.2,15.1,100,0.00,n/a,n/a,-99.99,Henriksen +1-Wire,2013-04-18 13:24:00,
2013-04-18 09:30:00,51.5,51.5,30.35,East,79,5.7,15.0,100,0.00,n/a,n/a,-99.99,Henriksen +1-Wire,2013-04-18 13:30:00,
2013-04-18 09:36:00,51.4,51.4,30.35,East,101,8.5,15.0,100,0.00,n/a,n/a,-99.99,Henriksen +1-Wire,2013-04-18 13:36:00,
2013-04-18 09:42:00,52.0,52.0,30.35,NE,55,3.6,14.2,100,0.00,n/a,n/a,-99.99,Henriksen +1-Wire,2013-04-18 13:42:00,
2013-04-18 09:48:00,52.3,52.3,30.35,ENE,73,4.3,9.6,100,0.00,n/a,n/a,-99.99,Henriksen +1-Wire,2013-04-18 13:48:00,
2013-04-18 09:54:00,52.3,52.3,30.35,East,95,7.6,15.1,100,0.00,n/a,n/a,-99.99,Henriksen +1-Wire,2013-04-18 13:54:00,
2013-04-18 10:00:00,52.6,52.6,30.36,East,94,5.4,14.9,100,0.00,n/a,n/a,-99.99,Henriksen +1-Wire,2013-04-18 14:00:00,
2013-04-18 10:06:00,52.7,52.7,30.36,East,84,9.6,18.8,100,0.00,n/a,n/a,-99.99,Henriksen +1-Wire,2013-04-18 14:06:00,
2013-04-18 10:12:00,52.9,45.2,30.36,ENE,69,4.5,14.4,74,0.00,n/a,n/a,-99.99,Henriksen +1-Wire,2013-04-18 14:12:00,
2013-04-18 10:18:00,52.8,51.7,30.36,ENE,77,5.7,14.2,96,0.00,n/a,n/a,-99.99,Henriksen +1-Wire,2013-04-18 14:18:00,
2013-04-18 10:24:00,53.4,53.2,30.36,NE,48,5.4,12.3,99,0.00,n/a,n/a,-99.99,Henriksen +1-Wire,2013-04-18 14:24:00,
2013-04-18 10:30:00,53.2,53.2,30.36,ENE,69,7.2,13.7,99,0.00,n/a,n/a,-99.99,Henriksen +1-Wire,2013-04-18 14:30:00,
2013-04-18 10:36:00,53.3,53.3,30.36,East,92,7.9,14.7,100,0.00,n/a,n/a,-99.99,Henriksen +1-Wire,2013-04-18 14:36:00,
2013-04-18 10:42:00,54.0,54.0,30.35,ENE,74,4.7,12.1,100,0.00,n/a,n/a,-99.99,Henriksen +1-Wire,2013-04-18 14:42:00,
2013-04-18 10:48:00,54.2,54.2,30.35,ENE,72,6.7,12.9,100,0.00,n/a,n/a,-99.99,Henriksen +1-Wire,2013-04-18 14:48:00,
2013-04-18 10:54:00,54.4,52.2,30.35,ENE,77,7.8,14.2,92,0.00,n/a,n/a,-99.99,Henriksen +1-Wire,2013-04-18 14:54:00,
2013-04-18 11:00:00,54.2,53.7,30.35,East,84,6.8,11.7,98,0.00,n/a,n/a,-99.99,Henriksen +1-Wire,2013-04-18 15:00:00,
2013-04-18 11:06:00,54.4,54.3,30.35,East,87,5.8,13.1,99,0.00,n/a,n/a,-99.99,Henriksen +1-Wire,2013-04-18 15:06:00,
2013-04-18 11:12:00,54.7,54.6,30.34,East,80,4.9,13.1,99,0.00,n/a,n/a,-99.99,Henriksen +1-Wire,2013-04-18 15:12:00,
2013-04-18 11:18:00,55.4,55.4,30.34,ENE,78,5.6,10.2,100,0.00,n/a,n/a,-99.99,Henriksen +1-Wire,2013-04-18 15:18:00,
2013-04-18 11:24:00,55.3,50.1,30.34,East,85,6.9,11.3,82,0.00,n/a,n/a,-99.99,Henriksen +1-Wire,2013-04-18 15:24:00,
2013-04-18 11:30:00,55.7,52.3,30.34,East,82,7.0,13.7,88,0.00,n/a,n/a,-99.99,Henriksen +1-Wire,2013-04-18 15:30:00,
2013-04-18 11:36:00,55.0,45.9,30.34,East,80,8.6,14.3,71,0.00,n/a,n/a,-99.99,Henriksen +1-Wire,2013-04-18 15:36:00,
2013-04-18 11:42:00,55.3,54.5,30.34,East,93,8.8,14.3,96,0.00,n/a,n/a,-99.99,Henriksen +1-Wire,2013-04-18 15:42:00,
2013-04-18 11:48:00,55.4,55.3,30.33,ENE,77,6.9,14.3,99,0.00,n/a,n/a,-99.99,Henriksen +1-Wire,2013-04-18 15:48:00,
2013-04-18 11:54:00,56.4,56.4,30.33,ENE,72,4.3,14.0,100,0.00,n/a,n/a,-99.99,Henriksen +1-Wire,2013-04-18 15:54:00,
2013-04-18 12:00:00,56.7,56.7,30.33,ENE,78,7.7,12.9,100,0.00,n/a,n/a,-99.99,Henriksen +1-Wire,2013-04-18 16:00:00,
2013-04-18 12:06:00,57.1,57.1,30.33,East,79,9.7,15.8,100,0.00,n/a,n/a,-99.99,Henriksen +1-Wire,2013-04-18 16:06:00,
2013-04-18 12:12:00,56.7,56.7,30.32,ENE,76,6.5,15.8,100,0.00,n/a,n/a,-99.99,Henriksen +1-Wire,2013-04-18 16:12:00,
2013-04-18 12:18:00,56.3,56.3,30.32,East,87,6.1,12.1,100,0.00,n/a,n/a,-99.99,Henriksen +1-Wire,2013-04-18 16:18:00,
2013-04-18 12:24:00,56.7,56.7,30.31,East,93,6.3,14.4,100,0.00,n/a,n/a,-99.99,Henriksen +1-Wire,2013-04-18 16:24:00,
2013-04-18 12:30:00,56.3,56.3,30.31,East,91,6.6,13.4,100,0.00,n/a,n/a,-99.99,Henriksen +1-Wire,2013-04-18 16:30:00,
2013-04-18 12:36:00,56.8,56.8,30.31,ESE,104,6.0,10.9,100,0.00,n/a,n/a,-99.99,Henriksen +1-Wire,2013-04-18 16:36:00,
2013-04-18 12:42:00,56.7,56.7,30.31,East,87,6.1,11.0,100,0.00,n/a,n/a,-99.99,Henriksen +1-Wire,2013-04-18 16:42:00,
2013-04-18 12:48:00,56.9,56.9,30.30,East,87,6.1,11.6,100,0.00,n/a,n/a,-99.99,Henriksen +1-Wire,2013-04-18 16:48:00,
2013-04-18 12:54:00,57.1,57.1,30.30,East,83,9.4,13.5,100,0.00,n/a,n/a,-99.99,Henriksen +1-Wire,2013-04-18 16:54:00,
2013-04-18 13:00:00,57.2,57.2,30.29,East,80,4.9,13.5,100,0.00,n/a,n/a,-99.99,Henriksen +1-Wire,2013-04-18 17:00:00,
2013-04-18 13:06:00,58.1,58.1,30.29,ENE,71,5.7,13.6,100,0.00,n/a,n/a,-99.99,Henriksen +1-Wire,2013-04-18 17:06:00,
2013-04-18 13:12:00,58.5,58.5,30.28,East,92,7.3,13.6,100,0.00,n/a,n/a,-99.99,Henriksen +1-Wire,2013-04-18 17:12:00,
2013-04-18 13:18:00,57.7,57.7,30.28,East,94,7.0,17.4,100,0.00,n/a,n/a,-99.99,Henriksen +1-Wire,2013-04-18 17:18:00,
2013-04-18 13:24:00,58.2,58.2,30.28,East,82,5.6,15.2,100,0.00,n/a,n/a,-99.99,Henriksen +1-Wire,2013-04-18 17:24:00,
2013-04-18 13:30:00,58.2,58.2,30.28,East,89,10.6,15.9,100,0.00,n/a,n/a,-99.99,Henriksen +1-Wire,2013-04-18 17:30:00,
2013-04-18 13:36:00,58.6,58.6,30.27,East,99,8.6,15.9,100,0.00,n/a,n/a,-99.99,Henriksen +1-Wire,2013-04-18 17:36:00,
2013-04-18 13:42:00,58.9,58.9,30.27,ENE,78,4.3,13.1,100,0.00,n/a,n/a,-99.99,Henriksen +1-Wire,2013-04-18 17:42:00,
2013-04-18 13:48:00,59.8,59.8,30.26,East,83,7.1,12.7,100,0.00,n/a,n/a,-99.99,Henriksen +1-Wire,2013-04-18 17:48:00,
2013-04-18 13:54:00,59.8,59.8,30.26,East,93,7.0,12.7,100,0.00,n/a,n/a,-99.99,Henriksen +1-Wire,2013-04-18 17:54:00,
2013-04-18 14:00:00,59.5,59.5,30.26,East,91,8.2,15.7,100,0.00,n/a,n/a,-99.99,Henriksen +1-Wire,2013-04-18 18:00:00,
2013-04-18 14:06:00,59.7,59.7,30.25,East,87,8.9,15.7,100,0.00,n/a,n/a,-99.99,Henriksen +1-Wire,2013-04-18 18:06:00,
2013-04-18 14:12:00,60.2,60.2,30.25,ENE,58,5.8,15.1,100,0.00,n/a,n/a,-99.99,Henriksen +1-Wire,2013-04-18 18:12:00,
2013-04-18 14:18:00,59.9,59.9,30.26,East,90,8.2,12.4,100,0.00,n/a,n/a,-99.99,Henriksen +1-Wire,2013-04-18 18:18:00,
2013-04-18 14:24:00,60.0,60.0,30.25,East,85,7.9,15.3,100,0.00,n/a,n/a,-99.99,Henriksen +1-Wire,2013-04-18 18:24:00,
2013-04-18 14:30:00,61.1,61.1,30.25,East,84,6.4,10.5,100,0.00,n/a,n/a,-99.99,Henriksen +1-Wire,2013-04-18 18:30:00,
2013-04-18 14:36:00,60.2,60.2,30.25,East,82,6.0,13.7,100,0.00,n/a,n/a,-99.99,Henriksen +1-Wire,2013-04-18 18:36:00,
2013-04-18 14:42:00,59.9,59.9,30.24,ENE,75,6.0,13.7,100,0.00,n/a,n/a,-99.99,Henriksen +1-Wire,2013-04-18 18:42:00,
2013-04-18 14:48:00,59.8,59.8,30.24,ENE,74,4.8,11.5,100,0.00,n/a,n/a,-99.99,Henriksen +1-Wire,2013-04-18 18:48:00,
2013-04-18 14:54:00,59.9,59.9,30.24,ENE,74,4.0,13.1,100,0.00,n/a,n/a,-99.99,Henriksen +1-Wire,2013-04-18 18:54:00,
2013-04-18 15:00:00,61.1,61.1,30.23,ENE,71,6.1,13.1,100,0.00,n/a,n/a,-99.99,Henriksen +1-Wire,2013-04-18 19:00:00,
2013-04-18 15:06:00,60.1,60.1,30.23,ENE,71,3.6,11.5,100,0.00,n/a,n/a,-99.99,Henriksen +1-Wire,2013-04-18 19:06:00,
2013-04-18 15:12:00,59.7,59.7,30.23,ENE,69,4.1,12.8,100,0.00,n/a,n/a,-99.99,Henriksen +1-Wire,2013-04-18 19:12:00,
2013-04-18 15:18:00,59.6,59.6,30.22,ENE,72,3.9,12.8,100,0.00,n/a,n/a,-99.99,Henriksen +1-Wire,2013-04-18 19:18:00,
2013-04-18 15:24:00,59.2,59.2,30.22,NE,54,3.0,12.6,100,0.00,n/a,n/a,-99.99,Henriksen +1-Wire,2013-04-18 19:24:00,
2013-04-18 15:30:00,59.0,59.0,30.23,ENE,78,5.7,9.6,100,0.00,n/a,n/a,-99.99,Henriksen +1-Wire,2013-04-18 19:30:00,
2013-04-18 15:36:00,58.7,58.7,30.22,East,80,3.9,10.9,100,0.00,n/a,n/a,-99.99,Henriksen +1-Wire,2013-04-18 19:36:00,
2013-04-18 15:42:00,59.8,59.8,30.21,ENE,73,4.3,8.6,100,0.00,n/a,n/a,-99.99,Henriksen +1-Wire,2013-04-18 19:42:00,
2013-04-18 15:48:00,60.7,60.7,30.22,ENE,70,4.3,8.0,100,0.00,n/a,n/a,-99.99,Henriksen +1-Wire,2013-04-18 19:48:00,
2013-04-18 15:54:00,60.6,60.6,30.21,East,92,6.6,9.7,100,0.00,n/a,n/a,-99.99,Henriksen +1-Wire,2013-04-18 19:54:00,
2013-04-18 16:00:00,60.6,60.6,30.21,East,79,3.5,10.3,100,0.00,n/a,n/a,-99.99,Henriksen +1-Wire,2013-04-18 20:00:00,
2013-04-18 16:06:00,60.5,60.5,30.21,East,82,4.3,7.1,100,0.00,n/a,n/a,-99.99,Henriksen +1-Wire,2013-04-18 20:06:00,
2013-04-18 16:12:00,59.5,59.5,30.20,East,81,5.0,8.1,100,0.00,n/a,n/a,-99.99,Henriksen +1-Wire,2013-04-18 20:12:00,
2013-04-18 16:18:00,59.5,59.5,30.19,ENE,77,4.1,8.1,100,0.00,n/a,n/a,-99.99,Henriksen +1-Wire,2013-04-18 20:18:00,
2013-04-18 16:24:00,59.3,59.3,30.20,East,100,4.4,8.5,100,0.00,n/a,n/a,-99.99,Henriksen +1-Wire,2013-04-18 20:24:00,
2013-04-18 16:30:00,59.2,59.2,30.20,ESE,103,3.0,6.2,100,0.00,n/a,n/a,-99.99,Henriksen +1-Wire,2013-04-18 20:30:00,
2013-04-18 16:36:00,59.4,59.4,30.20,ESE,110,4.3,6.7,100,0.00,n/a,n/a,-99.99,Henriksen +1-Wire,2013-04-18 20:36:00,
2013-04-18 16:42:00,59.9,59.9,30.19,ESE,118,5.7,9.2,100,0.00,n/a,n/a,-99.99,Henriksen +1-Wire,2013-04-18 20:42:00,
2013-04-18 16:48:00,60.2,60.2,30.19,SSE,152,6.4,9.6,100,0.00,n/a,n/a,-99.99,Henriksen +1-Wire,2013-04-18 20:48:00,
2013-04-18 16:54:00,60.1,60.1,30.19,SSE,153,7.3,10.9,100,0.00,n/a,n/a,-99.99,Henriksen +1-Wire,2013-04-18 20:54:00,
2013-04-18 17:00:00,59.9,59.9,30.19,SSE,158,7.2,13.1,100,0.00,n/a,n/a,-99.99,Henriksen +1-Wire,2013-04-18 21:00:00,
2013-04-18 17:06:00,59.7,59.7,30.19,SSE,155,6.7,13.1,100,0.00,n/a,n/a,-99.99,Henriksen +1-Wire,2013-04-18 21:06:00,
2013-04-18 17:12:00,59.6,59.6,30.19,SSE,160,6.6,12.1,100,0.00,n/a,n/a,-99.99,Henriksen +1-Wire,2013-04-18 21:12:00,
2013-04-18 17:18:00,59.4,59.4,30.20,SSE,152,6.1,11.6,100,0.00,n/a,n/a,-99.99,Henriksen +1-Wire,2013-04-18 21:18:00,
2013-04-18 17:24:00,59.1,59.1,30.19,SE,139,5.8,13.3,100,0.00,n/a,n/a,-99.99,Henriksen +1-Wire,2013-04-18 21:24:00,
2013-04-18 17:30:00,59.0,59.0,30.19,SSE,156,6.9,11.8,100,0.00,n/a,n/a,-99.99,Henriksen +1-Wire,2013-04-18 21:30:00,
2013-04-18 17:36:00,58.7,58.7,30.19,SSE,149,7.9,13.0,100,0.00,n/a,n/a,-99.99,Henriksen +1-Wire,2013-04-18 21:36:00,
2013-04-18 17:42:00,58.5,58.5,30.20,SE,127,6.2,13.0,100,0.00,n/a,n/a,-99.99,Henriksen +1-Wire,2013-04-18 21:42:00,
2013-04-18 17:48:00,58.4,58.4,30.19,SSE,159,5.0,9.4,100,0.00,n/a,n/a,-99.99,Henriksen +1-Wire,2013-04-18 21:48:00,
2013-04-18 17:54:00,58.0,58.0,30.19,SSE,162,6.2,12.5,100,0.00,n/a,n/a,-99.99,Henriksen +1-Wire,2013-04-18 21:54:00,
2013-04-18 18:00:00,57.8,57.8,30.19,SSE,154,5.8,12.8,100,0.00,n/a,n/a,-99.99,Henriksen +1-Wire,2013-04-18 22:00:00,
2013-04-18 18:06:00,57.7,57.7,30.19,SSE,158,4.2,12.8,100,0.00,n/a,n/a,-99.99,Henriksen +1-Wire,2013-04-18 22:06:00,
2013-04-18 18:12:00,57.6,57.6,30.19,SE,141,5.4,9.9,100,0.00,n/a,n/a,-99.99,Henriksen +1-Wire,2013-04-18 22:12:00,
2013-04-18 18:18:00,57.3,57.3,30.19,SSE,151,5.7,10.9,100,0.00,n/a,n/a,-99.99,Henriksen +1-Wire,2013-04-18 22:18:00,
2013-04-18 18:24:00,57.2,57.2,30.19,SSE,159,4.5,9.3,100,0.00,n/a,n/a,-99.99,Henriksen +1-Wire,2013-04-18 22:24:00,
2013-04-18 18:30:00,57.0,57.0,30.19,SSE,156,6.9,10.7,100,0.00,n/a,n/a,-99.99,Henriksen +1-Wire,2013-04-18 22:30:00,
2013-04-18 18:36:00,56.7,56.7,30.18,SSE,150,6.1,13.1,100,0.00,n/a,n/a,-99.99,Henriksen +1-Wire,2013-04-18 22:36:00,
2013-04-18 18:42:00,56.6,56.6,30.18,SSE,152,5.2,11.2,100,0.00,n/a,n/a,-99.99,Henriksen +1-Wire,2013-04-18 22:42:00,
2013-04-18 18:48:00,56.5,56.5,30.17,SSE,153,4.9,9.6,100,0.00,n/a,n/a,-99.99,Henriksen +1-Wire,2013-04-18 22:48:00,
2013-04-18 18:54:00,56.3,56.3,30.18,SE,132,5.1,10.9,100,0.00,n/a,n/a,-99.99,Henriksen +1-Wire,2013-04-18 22:54:00,
2013-04-18 19:00:00,56.2,56.2,30.17,SE,125,5.7,10.9,100,0.00,n/a,n/a,-99.99,Henriksen +1-Wire,2013-04-18 23:00:00,
2013-04-18 19:06:00,56.0,56.0,30.17,SE,126,5.3,8.6,100,0.00,n/a,n/a,-99.99,Henriksen +1-Wire,2013-04-18 23:06:00,
2013-04-18 19:12:00,55.8,55.8,30.17,ESE,113,5.9,10.4,100,0.00,n/a,n/a,-99.99,Henriksen +1-Wire,2013-04-18 23:12:00,
2013-04-18 19:18:00,55.7,55.7,30.17,ESE,120,5.4,10.4,100,0.00,n/a,n/a,-99.99,Henriksen +1-Wire,2013-04-18 23:18:00,
2013-04-18 19:24:00,55.7,55.7,30.16,SE,135,4.8,9.0,100,0.00,n/a,n/a,-99.99,Henriksen +1-Wire,2013-04-18 23:24:00,
2013-04-18 19:30:00,55.5,55.5,30.16,SE,130,5.4,9.1,100,0.00,n/a,n/a,-99.99,Henriksen +1-Wire,2013-04-18 23:30:00,
2013-04-18 19:36:00,55.5,55.5,30.16,SE,136,4.2,9.1,100,0.00,n/a,n/a,-99.99,Henriksen +1-Wire,2013-04-18 23:36:00,
2013-04-18 19:42:00,55.4,55.4,30.16,SSE,152,4.0,8.3,100,0.00,n/a,n/a,-99.99,Henriksen +1-Wire,2013-04-18 23:42:00,
2013-04-18 19:48:00,55.3,55.3,30.16,ESE,122,4.6,7.1,100,0.00,n/a,n/a,-99.99,Henriksen +1-Wire,2013-04-18 23:48:00,
2013-04-18 19:54:00,55.3,55.3,30.15,ESE,115,3.9,8.4,100,0.00,n/a,n/a,-99.99,Henriksen +1-Wire,2013-04-18 23:54:00,
2013-04-18 20:00:00,55.2,55.2,30.15,ESE,123,5.5,8.6,100,0.00,n/a,n/a,-99.99,Henriksen +1-Wire,2013-04-19 00:00:00,
2013-04-18 20:06:00,55.2,55.2,30.15,SSE,156,4.9,8.6,100,0.00,n/a,n/a,-99.99,Henriksen +1-Wire,2013-04-19 00:06:00,
2013-04-18 20:12:00,55.2,55.2,30.15,ESE,114,3.8,9.2,100,0.00,n/a,n/a,-99.99,Henriksen +1-Wire,2013-04-19 00:12:00,
2013-04-18 20:18:00,55.2,55.2,30.14,ESE,120,4.4,7.1,100,0.00,n/a,n/a,-99.99,Henriksen +1-Wire,2013-04-19 00:18:00,
2013-04-18 20:24:00,55.0,55.0,30.14,SE,127,4.5,7.7,100,0.00,n/a,n/a,-99.99,Henriksen +1-Wire,2013-04-19 00:24:00,
2013-04-18 20:30:00,54.9,54.9,30.14,ESE,118,6.1,12.8,100,0.00,n/a,n/a,-99.99,Henriksen +1-Wire,2013-04-19 00:30:00,
2013-04-18 20:36:00,54.6,54.6,30.14,ESE,111,4.2,12.8,100,0.00,n/a,n/a,-99.99,Henriksen +1-Wire,2013-04-19 00:36:00,
2013-04-18 20:42:00,54.4,54.4,30.15,SE,138,8.4,14.3,100,0.00,n/a,n/a,-99.99,Henriksen +1-Wire,2013-04-19 00:42:00,
2013-04-18 20:48:00,54.0,54.0,30.15,SE,136,7.0,14.2,100,0.00,n/a,n/a,-99.99,Henriksen +1-Wire,2013-04-19 00:48:00,
2013-04-18 20:54:00,53.7,53.7,30.15,ESE,112,6.1,12.8,100,0.00,n/a,n/a,-99.99,Henriksen +1-Wire,2013-04-19 00:54:00,
2013-04-18 21:00:00,53.5,53.5,30.15,ESE,115,6.3,12.8,100,0.00,n/a,n/a,-99.99,Henriksen +1-Wire,2013-04-19 01:00:00,
2013-04-18 21:06:00,53.2,53.2,30.15,SSE,152,9.2,15.7,100,0.00,n/a,n/a,-99.99,Henriksen +1-Wire,2013-04-19 01:06:00,
2013-04-18 21:12:00,53.0,53.0,30.14,ESE,114,6.7,15.7,100,0.00,n/a,n/a,-99.99,Henriksen +1-Wire,2013-04-19 01:12:00,
2013-04-18 21:18:00,52.8,52.8,30.14,SE,124,6.1,12.8,100,0.00,n/a,n/a,-99.99,Henriksen +1-Wire,2013-04-19 01:18:00,
2013-04-18 21:24:00,52.6,52.6,30.14,SE,135,6.0,11.5,100,0.00,n/a,n/a,-99.99,Henriksen +1-Wire,2013-04-19 01:24:00,
2013-04-18 21:30:00,52.6,52.6,30.14,ESE,120,8.5,13.7,100,0.00,n/a,n/a,-99.99,Henriksen +1-Wire,2013-04-19 01:30:00,
2013-04-18 21:36:00,52.5,52.5,30.14,ESE,120,6.4,13.7,100,0.00,n/a,n/a,-99.99,Henriksen +1-Wire,2013-04-19 01:36:00,
2013-04-18 21:42:00,52.3,52.3,30.13,SE,124,6.0,12.6,100,0.00,n/a,n/a,-99.99,Henriksen +1-Wire,2013-04-19 01:42:00,
2013-04-18 21:48:00,52.2,52.2,30.13,ESE,118,6.1,11.2,100,0.00,n/a,n/a,-99.99,Henriksen +1-Wire,2013-04-19 01:48:00,
2013-04-18 21:54:00,52.1,52.1,30.13,SE,138,4.7,9.9,100,0.00,n/a,n/a,-99.99,Henriksen +1-Wire,2013-04-19 01:54:00,
2013-04-18 22:00:00,51.9,51.9,30.13,SE,129,5.4,8.2,100,0.00,n/a,n/a,-99.99,Henriksen +1-Wire,2013-04-19 02:00:00,
2013-04-18 22:06:00,51.8,51.8,30.12,SSE,153,5.8,11.1,100,0.00,n/a,n/a,-99.99,Henriksen +1-Wire,2013-04-19 02:06:00,
2013-04-18 22:12:00,51.7,51.7,30.12,ESE,114,3.9,8.2,100,0.00,n/a,n/a,-99.99,Henriksen +1-Wire,2013-04-19 02:12:00,
2013-04-18 22:18:00,51.6,51.6,30.12,SE,124,3.3,7.5,100,0.00,n/a,n/a,-99.99,Henriksen +1-Wire,2013-04-19 02:18:00,
2013-04-18 22:24:00,51.3,51.3,30.12,SE,124,3.4,5.4,100,0.00,n/a,n/a,-99.99,Henriksen +1-Wire,2013-04-19 02:24:00,
2013-04-18 22:30:00,51.2,51.2,30.12,ESE,123,5.0,9.7,100,0.00,n/a,n/a,-99.99,Henriksen +1-Wire,2013-04-19 02:30:00,
2013-04-18 22:36:00,51.2,51.2,30.12,SE,124,4.3,9.7,100,0.00,n/a,n/a,-99.99,Henriksen +1-Wire,2013-04-19 02:36:00,
2013-04-18 22:42:00,51.0,51.0,30.11,ESE,119,3.6,8.0,100,0.00,n/a,n/a,-99.99,Henriksen +1-Wire,2013-04-19 02:42:00,
2013-04-18 22:48:00,50.9,50.9,30.10,ESE,121,4.1,6.9,100,0.00,n/a,n/a,-99.99,Henriksen +1-Wire,2013-04-19 02:48:00,
2013-04-18 22:54:00,51.2,51.2,30.10,ESE,105,3.6,8.3,100,0.00,n/a,n/a,-99.99,Henriksen +1-Wire,2013-04-19 02:54:00,
2013-04-18 23:00:00,51.3,51.3,30.10,ESE,105,4.6,8.3,100,0.00,n/a,n/a,-99.99,Henriksen +1-Wire,2013-04-19 03:00:00,
2013-04-18 23:06:00,51.5,51.5,30.10,ESE,115,4.8,8.7,100,0.00,n/a,n/a,-99.99,Henriksen +1-Wire,2013-04-19 03:06:00,
2013-04-18 23:12:00,51.6,51.6,30.10,ESE,106,5.3,8.1,100,0.00,n/a,n/a,-99.99,Henriksen +1-Wire,2013-04-19 03:12:00,
2013-04-18 23:18:00,51.8,51.8,30.09,ESE,111,5.3,9.3,100,0.00,n/a,n/a,-99.99,Henriksen +1-Wire,2013-04-19 03:18:00,
2013-04-18 23:24:00,51.9,51.9,30.10,SSE,151,4.5,9.4,100,0.00,n/a,n/a,-99.99,Henriksen +1-Wire,2013-04-19 03:24:00,
2013-04-18 23:30:00,51.9,51.9,30.10,SSE,149,4.7,9.4,100,0.00,n/a,n/a,-99.99,Henriksen +1-Wire,2013-04-19 03:30:00,
2013-04-18 23:36:00,52.0,52.0,30.10,ESE,108,3.9,8.1,100,0.00,n/a,n/a,-99.99,Henriksen +1-Wire,2013-04-19 03:36:00,
2013-04-18 23:42:00,52.1,52.1,30.10,SSE,150,4.6,9.6,100,0.00,n/a,n/a,-99.99,Henriksen +1-Wire,2013-04-19 03:42:00,
2013-04-18 23:48:00,52.1,52.1,30.10,SSE,154,4.7,9.6,100,0.00,n/a,n/a,-99.99,Henriksen +1-Wire,2013-04-19 03:48:00,
2013-04-18 23:54:00,52.1,52.1,30.10,SSE,155,3.6,8.8,100,0.00,n/a,n/a,-99.99,Henriksen +1-Wire,2013-04-19 03:54:00,